This is the latest recevied weather packets stored in our database for station/object DH0DM-13. If no packets are shown the sender has not sent any weather packets the latest 10 day(s).
| Time | Temp. | Humidity | Pressure | Rain* | Wind** | Luminosity | Snow |
|---|---|---|---|---|---|---|---|
| 1787430108 | 14.44° C | 76% | 992.3 hPa | 11.18 mm | 6.71 m/s, 229° | - | - |
| 1787429507 | 14.44° C | 76% | 992.3 hPa | 11.18 mm | 4.92 m/s, 235° | - | - |
| 1787428905 | 15° C | 76% | 992.2 hPa | 11.18 mm | 2.68 m/s, 242° | - | - |
| 1787428304 | 15° C | 75% | 992 hPa | 11.18 mm | 11.18 m/s, 202° | - | - |
| 1787427703 | 15° C | 75% | 991.9 hPa | 11.18 mm | 4.92 m/s, 247° | - | - |
| 1787427102 | 15° C | 75% | 991.9 hPa | 11.18 mm | 7.15 m/s, 237° | - | - |
| 1787426501 | 15° C | 75% | 991.7 hPa | 11.18 mm | 5.36 m/s, 220° | - | - |
| 1787425900 | 15° C | 76% | 991.6 hPa | 11.18 mm | 3.58 m/s, 217° | - | - |
| 1787425299 | 15° C | 76% | 991.5 hPa | 11.18 mm | 7.15 m/s, 232° | - | - |
| 1787424699 | 15° C | 76% | 991.4 hPa | 11.18 mm | 4.92 m/s, 250° | - | - |
| 1787424098 | 15° C | 77% | 991.3 hPa | 11.18 mm | 4.92 m/s, 242° | - | - |
| 1787423497 | 15° C | 77% | 991 hPa | 11.18 mm | 3.13 m/s, 245° | - | - |
| 1787422896 | 15° C | 79% | 991 hPa | 11.18 mm | 3.58 m/s, 257° | - | - |
| 1787422295 | 15° C | 79% | 991 hPa | 11.18 mm | 4.92 m/s, 247° | - | - |
| 1787421694 | 15.56° C | 78% | 991 hPa | 11.18 mm | 0.89 m/s, 227° | - | - |
| 1787421093 | 15.56° C | 77% | 990.9 hPa | 11.18 mm | 0.89 m/s, 189° | - | - |
| 1787420492 | 16.11° C | 75% | 990.7 hPa | 11.18 mm | 2.68 m/s, 223° | - | - |
| 1787419891 | 16.11° C | 75% | 990.6 hPa | 11.18 mm | 4.02 m/s, 226° | - | - |
| 1787419290 | 16.67° C | 74% | 990.8 hPa | 11.18 mm | 4.47 m/s, 241° | - | - |
| 1787418689 | 16.67° C | 72% | 990.7 hPa | 11.18 mm | 6.71 m/s, 223° | - | - |
| 1787418088 | 16.67° C | 73% | 990.5 hPa | 11.18 mm | 4.02 m/s, 213° | - | - |
| 1787417487 | 17.78° C | 71% | 990.5 hPa | 11.18 mm | 2.24 m/s, 159° | - | - |
| 1787416886 | 17.22° C | 69% | 990.5 hPa | 11.18 mm | 4.92 m/s, 211° | - | - |
| 1787416286 | 16.67° C | 73% | 990.4 hPa | 11.18 mm | 2.68 m/s, 225° | - | - |
| 1787415685 | 17.22° C | 70% | 990.4 hPa | 11.18 mm | 4.92 m/s, 234° | - | - |
* Rain since midnight (hover to see other rain measurements)
** Current wind speed in m/s (hover to see current wind gust speed)